Location: B?dargowo
(53.3916°N, 14.4413°E)
Time: 06:15:20
(UTC+00:00)

Cosmos 1892 - Pass Details

Date: 05 February 2023
Orbit: 486 x 506 km, 82.5° (Epoch: 24 March)

Event Time Altitude Azimuth Distance (km) Brightness Sun altitude
Rises 17:11:46 0° 192° (SSW) 2,586 6.6 -12.0°
Reaches altitude 10° 17:13:51 10° 193° (SSW) 1,712 5.6 -12.3°
Maximum altitude 17:17:37 82° 282° (WNW) 521 2.7 -12.9°
Drops below altitude 10° 17:21:27 10° 10° (N) 1,745 5.2 -13.4°
Enters shadow 17:25:45 -7° 12° (NNE) 3,534 6.8 -14.1°
